Portland Troutdale, OR

3:32 PM PDT on June 24, 2017 (GMT -0700)
Portland-Troutdale

Weather History for KTTD - November, 2012

Change the Weather History Date:

Friday, November 16, 2012

  Actual Average Record
Temperature  
Mean Temperature 47 °F 46 °F  
Max Temperature 50 °F 52 °F 69 °F (1976)
Min Temperature 44 °F 39 °F 26 °F (1961)
Degree Days  
Heating Degree Days 18 19  
Month to date heating degree days 224 280  
Cooling Degree Days 0 0  
Month to date cooling degree days 0 0  
Moisture  
Dew Point 39 °F    
Average Humidity 71    
Maximum Humidity 76    
Minimum Humidity 65    
Precipitation  
Precipitation T in 0.25 in 1.81 in (1973)
Month to date precipitation 2.13 3.84  
Year to date precipitation 38.18 36.36  
Snow  
Snow 0.00 in - - ()
Month to date snowfall 0.0  
Snow Depth 0.00 in    
Sea Level Pressure  
Sea Level Pressure 29.87 in    
Wind  
Wind Speed 16 mph (East)    
Max Wind Speed 29 mph    
Max Gust Speed 37 mph    
Visibility 10 miles    
Events Rain    
T = Trace of Precipitation, MM = Missing Value Source: NWS Daily Summary

Daily Weather History Graph

Daily Weather History Graph

Search for Another Location

Airport or City:

Trip Planner

Search our weather history database for the weather conditions in past years. The results will help you decide how hot, cold, wet, or windy it might be!

Date:

Astronomy

Nov. 16, 2012 Rise Set
Actual Time 7:10 AM PST 4:37 PM PST
Civil Twilight 6:38 AM PST 5:09 PM PST
Nautical Twilight 6:02 AM PST 5:45 PM PST
Astronomical Twilight 5:27 AM PST 6:20 PM PST
Moon 10:12 AM PST (11/16) 7:41 PM PST (11/16)
Length of Visible Light 10h 31m
Length of Day
9h 26m
Waxing Crescent, 12% of the Moon is Illuminated
Nov 16
Waxing Crescent
Nov 20
First Quarter
Nov 28
Full
Dec 6
Last Quarter
Dec 13
New

Hourly Weather History & Observations

Time (PST) Temp. Windchill Dew Point Humidity Pressure Visibility Wind Dir Wind Speed Gust Speed Precip Events Conditions
12:53 AM 46.0 °F 41.0 °F 37.0 °F 71% 29.93 in 10.0 mi East 10.4 mph 18.4 mph N/A   Scattered Clouds
1:53 AM 45.0 °F 43.5 °F 37.0 °F 74% 29.92 in 10.0 mi ENE 3.5 mph - N/A   Clear
2:53 AM 45.0 °F 42.6 °F 36.0 °F 71% 29.93 in 10.0 mi ENE 4.6 mph - N/A   Partly Cloudy
4:53 AM 46.0 °F 39.3 °F 37.0 °F 71% 29.92 in 10.0 mi ESE 16.1 mph 26.5 mph N/A   Overcast
5:53 AM 46.0 °F 41.0 °F 37.0 °F 71% 29.92 in 10.0 mi ESE 10.4 mph 23.0 mph N/A   Overcast
6:53 AM 46.0 °F 41.4 °F 37.9 °F 73% 29.94 in 10.0 mi ESE 9.2 mph 17.3 mph N/A   Overcast
7:53 AM 44.1 °F 41.5 °F 37.9 °F 79% 29.95 in 10.0 mi Variable 4.6 mph - N/A   Overcast
8:53 AM 46.0 °F 41.0 °F 37.9 °F 73% 29.95 in 10.0 mi ESE 10.4 mph - N/A   Mostly Cloudy
9:53 AM 46.9 °F - 39.0 °F 74% 29.94 in 10.0 mi East 13.8 mph 23.0 mph N/A   Scattered Clouds
10:53 AM 48.9 °F - 39.9 °F 71% 29.92 in 10.0 mi East 19.6 mph 29.9 mph N/A   Partly Cloudy
11:53 AM 48.9 °F - 39.0 °F 69% 29.90 in 10.0 mi East 19.6 mph 26.5 mph N/A   Overcast
12:53 PM 50.0 °F - 39.0 °F 66% 29.88 in 10.0 mi East 20.7 mph 28.8 mph N/A   Scattered Clouds
1:53 PM 50.0 °F - 39.0 °F 66% 29.86 in 10.0 mi East 19.6 mph 28.8 mph N/A   Mostly Cloudy
2:53 PM 50.0 °F - 39.9 °F 68% 29.84 in 10.0 mi East 24.2 mph 31.1 mph N/A   Partly Cloudy
3:53 PM 50.0 °F - 39.9 °F 68% 29.83 in 10.0 mi East 19.6 mph 25.3 mph N/A   Overcast
4:53 PM 48.9 °F - 39.9 °F 71% 29.83 in 10.0 mi East 16.1 mph 26.5 mph N/A   Overcast
5:53 PM 48.9 °F - 39.9 °F 71% 29.82 in 10.0 mi East 21.9 mph 32.2 mph 0.00 in Rain Light Rain
6:53 PM 48.9 °F - 39.9 °F 71% 29.81 in 10.0 mi East 21.9 mph 32.2 mph 0.00 in   Overcast
7:53 PM 48.9 °F - 39.9 °F 71% 29.79 in 10.0 mi East 21.9 mph 29.9 mph N/A   Mostly Cloudy
8:53 PM 48.9 °F - 39.9 °F 71% 29.78 in 10.0 mi East 20.7 mph 28.8 mph N/A   Partly Cloudy
9:53 PM 48.0 °F - 39.9 °F 74% 29.78 in 10.0 mi East 19.6 mph 31.1 mph N/A   Scattered Clouds
10:53 PM 48.0 °F - 39.9 °F 74% 29.76 in 10.0 mi East 25.3 mph 32.2 mph N/A   Mostly Cloudy
11:53 PM 48.0 °F - 39.9 °F 74% 29.74 in 10.0 mi East 19.6 mph 29.9 mph N/A   Overcast